| time (UTC) | temp C | wind direction | speed KPH | gust KPH | rain 1hr cm | rain 24hr cm | rain mn cm | humidity % | barometer mb |
| 20260510214519 | 27 | 244 | 0.0 | 3.2 | 0.00 | 0.00 | 0.00 | 29 | 1012.2 |
| 20260510213019 | 27 | 244 | 0.0 | 3.2 | 0.00 | 0.00 | 0.00 | 32 | 1012.1 |
| 20260510211516 | 27 | 244 | 0.0 | 3.2 | 0.00 | 0.00 | 0.00 | 32 | 1012.1 |
| 20260510210018 | 27 | 244 | 0.0 | 0.0 | 0.00 | 0.00 | 0.00 | 34 | 1012.1 |
| 20260510204515 | 27 | 245 | 0.0 | 4.8 | 0.00 | 0.00 | 0.00 | 30 | 1012.1 |
| 20260510203014 | 27 | 245 | 0.0 | 4.8 | 0.00 | 0.00 | 0.00 | 32 | 1012.1 |
| 20260510201512 | 27 | 247 | 0.0 | 1.6 | 0.00 | 0.00 | 0.00 | 35 | 1012.4 |
| 20260510200013 | 27 | 247 | 0.0 | 4.8 | 0.00 | 0.00 | 0.00 | 28 | 1012.4 |
| 20260510194520 | 27 | 247 | 0.0 | 0.0 | 0.00 | 0.00 | 0.00 | 32 | 1012.7 |
| 20260510193012 | 27 | 247 | 0.0 | 1.6 | 0.00 | 0.00 | 0.00 | 28 | 1012.6 |
| 20260510191511 | 28 | 247 | 0.0 | 8.0 | 0.00 | 0.00 | 0.00 | 32 | 1012.8 |
| 20260510190016 | 28 | 229 | 0.0 | 3.2 | 0.00 | 0.00 | 0.00 | 31 | 1012.8 |
| 20260510184507 | 27 | 229 | 0.0 | 4.8 | 0.00 | 0.00 | 0.00 | 30 | 1013.0 |
| 20260510183007 | 27 | 230 | 0.0 | 0.0 | 0.00 | 0.00 | 0.00 | 33 | 1013.0 |
| 20260510181505 | 27 | 231 | 0.0 | 3.2 | 0.00 | 0.00 | 0.00 | 31 | 1013.2 |
| 20260510180008 | 27 | 231 | 0.0 | 0.0 | 0.00 | 0.00 | 0.00 | 32 | 1013.4 |
| 20260510174505 | 27 | 230 | 0.0 | 4.8 | 0.00 | 0.00 | 0.00 | 33 | 1013.4 |
| 20260510173004 | 27 | 230 | 0.0 | 0.0 | 0.00 | 0.00 | 0.00 | 33 | 1013.8 |
| 20260510171502 | 27 | 230 | 0.0 | 1.6 | 0.00 | 0.00 | 0.00 | 31 | 1013.9 |
| 20260510170002 | 27 | 230 | 0.0 | 0.0 | 0.00 | 0.00 | 0.00 | 29 | 1013.9 |
| 20260510164506 | 27 | 230 | 0.0 | 0.0 | 0.00 | 0.00 | 0.00 | 30 | 1013.9 |
| 20260510163152 | 27 | 230 | 0.0 | 3.2 | 0.00 | 0.00 | 0.00 | 30 | 1013.9 |
| 20260510161557 | 27 | 230 | 0.0 | 1.6 | 0.00 | 0.00 | 0.00 | 34 | 1014.2 |
| 20260510160059 | 26 | 230 | 0.0 | 3.2 | 0.00 | 0.00 | 0.00 | 35 | 1014.2 |
| 20260510154554 | 26 | 230 | 0.0 | 0.0 | 0.00 | 0.00 | 0.00 | 41 | 1014.2 |
| 20260510153100 | 25 | 230 | 0.0 | 0.0 | 0.00 | 0.00 | 0.00 | 44 | 1014.4 |
| 20260510151600 | 25 | 230 | 0.0 | 0.0 | 0.00 | 0.00 | 0.00 | 43 | 1014.5 |
| 20260510150046 | 25 | 230 | 0.0 | 0.0 | 0.00 | 0.00 | 0.00 | 50 | 1014.4 |
| 20260510144545 | 24 | 230 | 0.0 | 0.0 | 0.00 | 0.00 | 0.00 | 49 | 1014.4 |
| 20260510143051 | 24 | 230 | 0.0 | 0.0 | 0.00 | 0.00 | 0.00 | 52 | 1014.5 |
| 20260510141536 | 23 | 230 | 0.0 | 0.0 | 0.00 | 0.00 | 0.00 | 52 | 1014.6 |
| 20260510140034 | 22 | 230 | 0.0 | 0.0 | 0.00 | 0.00 | 0.00 | 62 | 1014.6 |
| 20260510134529 | 21 | 230 | 0.0 | 0.0 | 0.00 | 0.00 | 0.00 | 69 | 1014.6 |
| 20260510133026 | 20 | 230 | 0.0 | 0.0 | 0.00 | 0.00 | 0.00 | 76 | 1014.4 |
| 20260510131525 | 19 | 230 | 0.0 | 0.0 | 0.00 | 0.00 | 0.00 | 83 | 1014.4 |
| 20260510130016 | 17 | 230 | 0.0 | 0.0 | 0.00 | 0.00 | 0.00 | 88 | 1014.4 |
| 20260510124520 | 16 | 230 | 0.0 | 0.0 | 0.00 | 0.00 | 0.00 | 93 | 1014.3 |
| 20260510123011 | 15 | 230 | 0.0 | 0.0 | 0.00 | 0.00 | 0.00 | 95 | 1014.2 |
| 20260510121516 | 13 | 230 | 0.0 | 0.0 | 0.00 | 0.00 | 0.00 | 96 | 1014.0 |
| 20260510120028 | 12 | 230 | 0.0 | 0.0 | 0.00 | 0.00 | 0.00 | 96 | 1013.8 |
| 20260510114529 | 11 | 230 | 0.0 | 0.0 | 0.00 | 0.00 | 0.00 | 95 | 1013.3 |
| 20260510113026 | 11 | 230 | 0.0 | 0.0 | 0.00 | 0.00 | 0.00 | 95 | 1013.2 |
| 20260510111524 | 11 | 230 | 0.0 | 0.0 | 0.00 | 0.00 | 0.00 | 95 | 1013.0 |
| 20260510110026 | 11 | 230 | 0.0 | 0.0 | 0.00 | 0.00 | 0.00 | 94 | 1012.6 |
| 20260510104520 | 11 | 230 | 0.0 | 0.0 | 0.00 | 0.00 | 0.00 | 94 | 1012.5 |
| 20260510103025 | 11 | 230 | 0.0 | 0.0 | 0.00 | 0.00 | 0.00 | 94 | 1012.1 |
| 20260510101515 | 11 | 227 | 0.0 | 0.0 | 0.00 | 0.00 | 0.00 | 93 | 1011.9 |
| 20260510100027 | 11 | 227 | 0.0 | 0.0 | 0.00 | 0.00 | 0.00 | 93 | 1011.8 |
| 20260510094515 | 11 | 227 | 0.0 | 0.0 | 0.00 | 0.00 | 0.00 | 93 | 1011.7 |
| 20260510093010 | 12 | 227 | 0.0 | 0.0 | 0.00 | 0.00 | 0.00 | 93 | 1011.5 |
| 20260510091508 | 12 | 227 | 0.0 | 0.0 | 0.00 | 0.00 | 0.00 | 93 | 1011.5 |
| 20260510090007 | 12 | 227 | 0.0 | 0.0 | 0.00 | 0.00 | 0.00 | 93 | 1011.3 |
| 20260510084503 | 12 | 227 | 0.0 | 0.0 | 0.00 | 0.00 | 0.00 | 93 | 1011.1 |
| 20260510083005 | 13 | 227 | 0.0 | 0.0 | 0.00 | 0.00 | 0.00 | 93 | 1011.0 |
| 20260510081600 | 13 | 227 | 0.0 | 0.0 | 0.00 | 0.00 | 0.00 | 93 | 1010.8 |
| 20260510080059 | 13 | 227 | 0.0 | 0.0 | 0.00 | 0.00 | 0.00 | 93 | 1010.6 |
| 20260510074558 | 13 | 227 | 0.0 | 0.0 | 0.00 | 0.00 | 0.00 | 93 | 1010.4 |
| 20260510073104 | 13 | 227 | 0.0 | 0.0 | 0.00 | 0.00 | 0.00 | 93 | 1010.3 |
| 20260510071555 | 13 | 227 | 0.0 | 0.0 | 0.00 | 0.00 | 0.00 | 93 | 1010.1 |
| 20260510070055 | 13 | 227 | 0.0 | 0.0 | 0.00 | 0.00 | 0.00 | 93 | 1010.3 |
| 20260510064554 | 14 | 227 | 0.0 | 0.0 | 0.00 | 0.00 | 0.00 | 93 | 1010.2 |
| 20260510063051 | 14 | 227 | 0.0 | 0.0 | 0.00 | 0.00 | 0.00 | 92 | 1010.2 |
| 20260510061550 | 15 | 227 | 0.0 | 0.0 | 0.00 | 0.00 | 0.00 | 92 | 1010.3 |
| 20260510060050 | 15 | 227 | 0.0 | 0.0 | 0.00 | 0.00 | 0.00 | 92 | 1010.3 |
| 20260510054545 | 15 | 227 | 0.0 | 0.0 | 0.00 | 0.00 | 0.00 | 92 | 1010.4 |
| 20260510053042 | 15 | 227 | 0.0 | 0.0 | 0.00 | 0.00 | 0.00 | 92 | 1010.5 |
| 20260510051545 | 15 | 227 | 0.0 | 0.0 | 0.00 | 0.00 | 0.00 | 91 | 1010.6 |
| 20260510050044 | 15 | 227 | 0.0 | 0.0 | 0.00 | 0.00 | 0.00 | 91 | 1010.6 |
| 20260510044538 | 16 | 227 | 0.0 | 0.0 | 0.00 | 0.00 | 0.00 | 91 | 1010.7 |
| 20260510043041 | 16 | 227 | 0.0 | 0.0 | 0.00 | 0.00 | 0.00 | 90 | 1010.6 |
| 20260510041535 | 16 | 227 | 0.0 | 0.0 | 0.00 | 0.00 | 0.00 | 91 | 1010.8 |
| 20260510040032 | 16 | 227 | 0.0 | 0.0 | 0.00 | 0.00 | 0.00 | 90 | 1010.7 |
| 20260510034540 | 16 | 227 | 0.0 | 0.0 | 0.00 | 0.00 | 0.00 | 89 | 1010.6 |
| 20260510033032 | 16 | 227 | 0.0 | 0.0 | 0.00 | 0.00 | 0.00 | 89 | 1010.6 |
| 20260510031531 | 16 | 227 | 0.0 | 0.0 | 0.00 | 0.00 | 0.00 | 88 | 1010.7 |
| 20260510030030 | 17 | 227 | 0.0 | 0.0 | 0.00 | 0.00 | 0.00 | 86 | 1010.6 |
| 20260510024530 | 17 | 227 | 0.0 | 0.0 | 0.00 | 0.00 | 0.00 | 84 | 1010.6 |
| 20260510023032 | 18 | 227 | 0.0 | 0.0 | 0.00 | 0.00 | 0.00 | 84 | 1010.6 |
| 20260510021532 | 18 | 227 | 0.0 | 0.0 | 0.00 | 0.00 | 0.00 | 83 | 1010.6 |
| 20260510020028 | 17 | 227 | 0.0 | 0.0 | 0.00 | 0.00 | 0.00 | 85 | 1010.1 |
| 20260510014529 | 17 | 227 | 0.0 | 0.0 | 0.00 | 0.00 | 0.00 | 85 | 1010.1 |
| 20260510013028 | 17 | 227 | 0.0 | 0.0 | 0.00 | 0.00 | 0.00 | 83 | 1009.9 |
| 20260510011537 | 18 | 227 | 0.0 | 0.0 | 0.00 | 0.00 | 0.00 | 81 | 1009.8 |
| 20260510010026 | 18 | 227 | 0.0 | 0.0 | 0.00 | 0.00 | 0.00 | 80 | 1009.5 |
| 20260510004525 | 19 | 227 | 0.0 | 0.0 | 0.00 | 0.00 | 0.00 | 79 | 1009.1 |
| 20260510003027 | 20 | 227 | 0.0 | 0.0 | 0.00 | 0.00 | 0.00 | 76 | 1008.9 |
| 20260510001526 | 20 | 227 | 0.0 | 0.0 | 0.00 | 0.00 | 0.00 | 75 | 1008.7 |
| 20260510000046 | 20 | 227 | 0.0 | 0.0 | 0.00 | 0.00 | 0.00 | 75 | 1008.4 |
| 20260509234534 | 20 | 227 | 0.0 | 0.0 | 0.00 | 0.00 | 0.00 | 75 | 1008.5 |
| 20260509233027 | 21 | 227 | 0.0 | 4.8 | 0.00 | 0.00 | 0.00 | 73 | 1008.5 |
| 20260509231522 | 21 | 228 | 0.0 | 1.6 | 0.00 | 0.00 | 0.00 | 72 | 1008.4 |
| 20260509230022 | 21 | 238 | 0.0 | 17.7 | 0.00 | 0.00 | 0.00 | 71 | 1007.8 |
| 20260509224521 | 21 | 189 | 0.0 | 11.3 | 0.00 | 0.00 | 0.00 | 70 | 1008.1 |
| 20260509223020 | 21 | 200 | 0.0 | 9.7 | 0.00 | 0.00 | 0.00 | 69 | 1007.9 |
| 20260509221520 | 21 | 218 | 0.0 | 12.9 | 0.00 | 0.00 | 0.00 | 69 | 1007.7 |
| 20260509220023 | 22 | 143 | 0.0 | 16.1 | 0.00 | 0.00 | 0.00 | 70 | 1007.7 |